Weather History for Cairns, QU

Change the Weather History Date:

Thursday, February 6, 2014

  Actual Average Record
Temperature  
Mean Temperature 76 °F -  
Max Temperature 82 °F 88 °F 93 °F (2006)
Min Temperature 71 °F 74 °F 32 °F (2005)
Cooling Degree Days 12    
Growing Degree Days 26 (Base 50)    
Moisture  
Dew Point 71 °F    
Average Humidity 86    
Maximum Humidity 100    
Minimum Humidity 68    
Precipitation  
Precipitation 0.24 in 0.56 in - ()
Sea Level Pressure  
Sea Level Pressure 29.75 in    
Wind  
Wind Speed 10 mph ()    
Max Wind Speed 17 mph    
Max Gust Speed 31 mph    
Visibility 5.7 miles    
Events Rain    
Averages and records for this station are not official NWS values.
T = Trace of Precipitation, MM = Missing Value Source: Averaged Metar Reports

Daily Weather History Graph

Daily Weather History Graph

Search for Another Location

Airport:

Trip Planner

Search our weather history database for the weather conditions in past years. The results will help you decide how hot, cold, wet, or windy it might be!

Date:

Astronomy

Feb. 06, 2014 Rise Set
Actual Time 6:07 AM EST 6:54 PM EST
Civil Twilight 5:45 AM EST 7:16 PM EST
Nautical Twilight 5:18 AM EST 7:43 PM EST
Astronomical Twilight 4:51 AM EST 8:10 PM EST
Moon 11:55 AM EST (2/6) 11:42 PM EST (2/6)
Length of Visible Light 13h 31m
Length of Day
12h 46m
Waxing Crescent, 43% of the Moon is Illuminated
Feb 6
Waxing Crescent
Feb 7
First Quarter
Feb 15
Full
Feb 23
Last Quarter
Mar 1
New

Hourly Weather History & Observations

Time (EST) Temp. Heat Index Dew Point Humidity Pressure Visibility Wind Dir Wind Speed Gust Speed Precip Events Conditions
12:00 AM 72 °F - 70 °F 93% 29.81 in - South 9.2 mph - -   Overcast
12:00 AM 73.4 °F - 69.8 °F 88% 29.80 in 4.3 mi South 9.2 mph - N/A Rain Light Rain
12:20 AM 71.6 °F - 69.8 °F 94% 29.80 in 3.7 mi South 12.7 mph - N/A Rain Rain
12:30 AM 71.6 °F - 71.6 °F 100% 29.77 in 3.7 mi South 10.4 mph - N/A Rain Light Rain
1:00 AM 72 °F - 71 °F 94% 29.79 in - South 12.7 mph - -  
1:00 AM 71.6 °F - 69.8 °F 94% 29.77 in 5.0 mi South 12.7 mph - N/A Rain Light Rain
1:30 AM 73.4 °F - 69.8 °F 88% 29.77 in 5.0 mi South 15.0 mph - N/A Rain Light Rain
2:00 AM 71.6 °F - 71.6 °F 100% 29.74 in 5.0 mi South 11.5 mph - N/A Rain Light Rain
2:29 AM 71.6 °F - 69.8 °F 94% 29.74 in 5.0 mi South 13.8 mph - N/A Rain Light Rain
3:00 AM 72 °F - 70 °F 92% 29.74 in - South 15.0 mph - -  
3:00 AM 71.6 °F - 69.8 °F 94% 29.74 in 5.6 mi South 15.0 mph - N/A Rain Light Rain
3:30 AM 71.6 °F - 69.8 °F 94% 29.74 in 6.2 mi South 13.8 mph - N/A   Mostly Cloudy
4:00 AM 72 °F - 70 °F 92% 29.74 in - South 12.7 mph - -  
4:00 AM 71.6 °F - 69.8 °F 94% 29.74 in 6.2 mi South 12.7 mph - N/A   Mostly Cloudy
4:30 AM 71.6 °F - 69.8 °F 94% 29.74 in 5.0 mi South 15.0 mph - N/A Rain Light Rain
5:00 AM 71.6 °F - 69.8 °F 94% 29.74 in 5.0 mi South 16.1 mph - N/A Rain Light Rain
5:30 AM 71.6 °F - 69.8 °F 94% 29.74 in 5.0 mi South 15.0 mph - N/A Rain Light Rain
5:52 AM 71.6 °F - 69.8 °F 94% 29.74 in 3.1 mi South 13.8 mph - N/A Rain Light Rain
6:00 AM 71 °F - 70 °F 94% 29.77 in 3 mi South 13.8 mph - - Rain Light Rain
6:00 AM 71.6 °F - 69.8 °F 94% 29.77 in 3.1 mi South 13.8 mph - N/A Rain Light Rain
6:30 AM 71.6 °F - 69.8 °F 94% 29.77 in 6.2 mi South 10.4 mph - N/A   Mostly Cloudy
7:00 AM 72 °F - 68 °F 83% 29.79 in - South 9.2 mph - -  
7:00 AM 73.4 °F - 68.0 °F 83% 29.77 in 6.2 mi South 9.2 mph - N/A   Mostly Cloudy
7:30 AM 73.4 °F - 69.8 °F 88% 29.77 in 6.2 mi SSE 8.1 mph - N/A   Mostly Cloudy
8:00 AM 75.2 °F - 69.8 °F 83% 29.77 in 6.2 mi SSE 10.4 mph - N/A   Mostly Cloudy
9:00 AM 78 °F - 71 °F 73% 29.78 in 16 mi SSE 8.1 mph - -   Partly Cloudy
9:00 AM 77.0 °F - 71.6 °F 83% 29.77 in 6.2 mi SSE 8.1 mph - N/A   Mostly Cloudy
9:30 AM 78.8 °F - 71.6 °F 78% 29.77 in 6.2 mi South 8.1 mph - N/A   Mostly Cloudy
10:00 AM 79 °F - 70 °F 68% 29.79 in - SSE 8.1 mph - -  
10:00 AM 78.8 °F - 69.8 °F 74% 29.77 in 6.2 mi SSE 8.1 mph - N/A   Mostly Cloudy
10:30 AM 78.8 °F - 71.6 °F 78% 29.77 in 6.2 mi South 6.9 mph - N/A   Mostly Cloudy
11:00 AM 82.4 °F 87.2 °F 71.6 °F 70% 29.77 in 6.2 mi South 8.1 mph - N/A   Mostly Cloudy
11:30 AM 80.6 °F 83.9 °F 69.8 °F 70% 29.77 in 6.2 mi SSE 8.1 mph - N/A   Mostly Cloudy
11:56 AM 78.8 °F - 71.6 °F 78% 29.77 in 3.7 mi SE 12.7 mph - N/A Rain Light Rain Showers
12:00 PM 77 °F - 72 °F 81% 29.77 in 4 mi SE 12.7 mph - - Rain Light Rain Showers
12:00 PM 77.0 °F - 71.6 °F 83% 29.77 in 3.7 mi SE 12.7 mph - N/A Rain Light Rain Showers
12:15 PM 77.0 °F - 71.6 °F 83% 29.74 in 6.2 mi South 8.1 mph - N/A   Mostly Cloudy
12:30 PM 78.8 °F - 71.6 °F 78% 29.74 in 6.2 mi ESE 11.5 mph - N/A   Mostly Cloudy
1:00 PM 78 °F - 73 °F 79% 29.76 in - SSE 8.1 mph - -  
1:00 PM 77.0 °F - 73.4 °F 89% 29.74 in 3.7 mi SSE 8.1 mph - N/A Rain Light Rain Showers
1:30 PM 77.0 °F - 73.4 °F 89% 29.74 in 6.2 mi SSE 12.7 mph - N/A Rain Light Rain Showers
2:00 PM 77.0 °F - 75.2 °F 94% 29.71 in 3.7 mi SSE 10.4 mph - N/A Rain Light Rain Showers
2:30 PM 77.0 °F - 73.4 °F 89% 29.71 in 6.2 mi South 10.4 mph - N/A   Mostly Cloudy
3:00 PM 77 °F - 72 °F 80% 29.71 in 16 mi SSE 11.5 mph - -   Partly Cloudy
3:00 PM 77.0 °F - 71.6 °F 83% 29.71 in 6.2 mi SSE 11.5 mph - N/A   Mostly Cloudy
3:30 PM 77.0 °F - 71.6 °F 83% 29.68 in 6.2 mi South 9.2 mph - N/A   Mostly Cloudy
4:00 PM 78 °F - 71 °F 73% 29.70 in - SSE 9.2 mph - -  
4:00 PM 78.8 °F - 71.6 °F 78% 29.68 in 6.2 mi SSE 9.2 mph - N/A   Mostly Cloudy
4:30 PM 77.0 °F - 71.6 °F 83% 29.68 in 6.2 mi SSE 11.5 mph - N/A   Mostly Cloudy
5:00 PM 77.0 °F - 69.8 °F 78% 29.68 in 6.2 mi South 6.9 mph - N/A Rain Light Rain Showers
5:30 PM 77.0 °F - 71.6 °F 83% 29.68 in 6.2 mi SSE 8.1 mph - N/A Rain Light Rain Showers
6:00 PM 77 °F - 72 °F 81% 29.71 in - SSE 9.2 mph - -   Overcast
6:00 PM 77.0 °F - 71.6 °F 83% 29.71 in 5.6 mi SSE 9.2 mph - N/A Rain Light Rain Showers
6:14 PM 77.0 °F - 71.6 °F 83% 29.71 in 5.6 mi SSE 8.1 mph - N/A Rain Light Rain Showers
6:30 PM 75.2 °F - 71.6 °F 89% 29.71 in 5.6 mi SSE 8.1 mph - N/A Rain Light Rain Showers
7:00 PM 75 °F - 72 °F 88% 29.75 in - South 6.9 mph - -  
7:00 PM 75.2 °F - 71.6 °F 89% 29.74 in 3.1 mi South 6.9 mph - N/A Rain Light Rain Showers
7:30 PM 75.2 °F - 71.6 °F 89% 29.74 in 4.3 mi South 9.2 mph - N/A Rain Light Rain Showers
8:00 PM 75.2 °F - 69.8 °F 83% 29.74 in 5.0 mi South 12.7 mph - N/A Rain Light Rain
8:30 PM 73.4 °F - 69.8 °F 88% 29.74 in 6.2 mi South 10.4 mph - N/A Rain Light Rain
9:00 PM 73 °F - 69 °F 85% 29.76 in - South 17.3 mph - -   Overcast
9:00 PM 73.4 °F - 69.8 °F 88% 29.74 in 6.2 mi South 17.3 mph 31.1 mph N/A Rain Light Rain
9:30 PM 73.4 °F - 69.8 °F 88% 29.74 in 6.2 mi South 16.1 mph 27.6 mph N/A   Mostly Cloudy
10:00 PM 74 °F - 69 °F 79% 29.77 in - South 15.0 mph - -  
10:00 PM 73.4 °F - 68.0 °F 83% 29.77 in 6.2 mi South 15.0 mph - N/A Rain Light Rain
10:30 PM 75.2 °F - 68.0 °F 78% 29.74 in 6.2 mi South 11.5 mph - N/A Rain Light Rain
11:00 PM 73.4 °F - 68.0 °F 83% 29.74 in 6.2 mi SSE 9.2 mph - N/A   Mostly Cloudy
11:30 PM 73.4 °F - 69.8 °F 88% 29.74 in 6.2 mi SE 11.5 mph - N/A Rain Light Rain Showers